Beaufort, SC

9:20 PM EST on December 03, 2016 (GMT -0500)
Beaufort Marine Corps Air Station

Weather History for KNBC - October, 2014

Change the Weather History Date:

Monday, October 6, 2014

  Actual Average Record
Temperature  
Mean Temperature 64 °F -  
Max Temperature 78 °F 80 °F 91 °F (1937)
Min Temperature 50 °F 61 °F 48 °F (1964)
Degree Days  
Heating Degree Days 1    
Growing Degree Days 14 (Base 50)    
Moisture  
Dew Point 51 °F    
Average Humidity 67    
Maximum Humidity 89    
Minimum Humidity 31    
Precipitation  
Precipitation 0.00 in - - ()
Sea Level Pressure  
Sea Level Pressure 30.10 in    
Wind  
Wind Speed 2 mph (SSW)    
Max Wind Speed 6 mph    
Max Gust Speed -    
Visibility 10 miles    
Events      
Averages and records for this station are not official NWS values.
T = Trace of Precipitation, MM = Missing Value Source: NWS Daily Summary

Daily Weather History Graph

Daily Weather History Graph

Search for Another Location

Airport or City:

Trip Planner

Search our weather history database for the weather conditions in past years. The results will help you decide how hot, cold, wet, or windy it might be!

Date:

Astronomy

Oct. 06, 2014 Rise Set
Actual Time 7:20 AM EDT 7:01 PM EDT
Civil Twilight 6:55 AM EDT 7:25 PM EDT
Nautical Twilight 6:27 AM EDT 7:54 PM EDT
Astronomical Twilight 5:58 AM EDT 8:22 PM EDT
Moon 5:52 PM EDT (10/6) 5:12 AM EDT (10/6)
Length of Visible Light 12h 29m
Length of Day
11h 40m
Waxing Gibbous, 95% of the Moon is Illuminated
Oct 6
Waxing Gibbous
Oct 8
Full
Oct 15
Last Quarter
Oct 23
New
Oct 30
First Quarter

Hourly Weather History & Observations

Time (EDT) Temp. Dew Point Humidity Pressure Visibility Wind Dir Wind Speed Gust Speed Precip Events Conditions
12:56 AM 54.0 °F 48.9 °F 83% 30.06 in 10.0 mi Calm Calm - N/A   Clear
1:56 AM 53.1 °F 48.0 °F 83% 30.06 in 10.0 mi WSW 3.5 mph - N/A   Clear
2:56 AM 53.1 °F 50.0 °F 89% 30.06 in 10.0 mi Calm Calm - N/A   Clear
3:56 AM 52.0 °F 48.0 °F 86% 30.07 in 10.0 mi WSW 3.5 mph - N/A   Clear
4:56 AM 51.1 °F 48.0 °F 89% 30.08 in 10.0 mi SW 3.5 mph - N/A   Clear
5:56 AM 52.0 °F 48.9 °F 89% 30.10 in 10.0 mi Calm Calm - N/A   Clear
6:27 AM 52.0 °F 46.9 °F 83% 30.10 in 10.0 mi Calm Calm - N/A   Clear
6:56 AM 50.0 °F 46.9 °F 89% 30.11 in 10.0 mi Calm Calm - N/A   Clear
7:56 AM 51.1 °F 48.0 °F 89% 30.12 in 10.0 mi WSW 3.5 mph - N/A   Clear
8:56 AM 60.1 °F 53.1 °F 78% 30.13 in 10.0 mi Calm Calm - N/A   Clear
9:56 AM 66.9 °F 51.1 °F 57% 30.14 in 10.0 mi West 3.5 mph - N/A   Clear
10:56 AM 71.1 °F 48.0 °F 44% 30.15 in 10.0 mi Calm Calm - N/A   Clear
11:56 AM 73.9 °F 46.9 °F 38% 30.14 in 10.0 mi Calm Calm - N/A   Clear
12:56 PM 77.0 °F 44.1 °F 31% 30.12 in 10.0 mi SSE 5.8 mph - N/A   Clear
1:56 PM 75.9 °F 50.0 °F 40% 30.10 in 10.0 mi SSE 5.8 mph - N/A   Clear
2:56 PM 77.0 °F 51.1 °F 40% 30.09 in 10.0 mi Variable 3.5 mph - N/A   Clear
3:56 PM 78.1 °F 52.0 °F 40% 30.08 in 10.0 mi North - - N/A   Partly Cloudy
4:56 PM 75.0 °F 54.0 °F 48% 30.07 in 10.0 mi SSE 5.8 mph - N/A   Partly Cloudy
5:56 PM 73.9 °F 54.0 °F 50% 30.09 in 10.0 mi South 4.6 mph - N/A   Partly Cloudy
6:56 PM 71.1 °F 55.0 °F 57% 30.08 in 10.0 mi South 3.5 mph - N/A   Scattered Clouds
7:56 PM 70.0 °F 55.9 °F 61% 30.09 in 10.0 mi South 3.5 mph - N/A   Mostly Cloudy
8:56 PM 69.1 °F 59.0 °F 70% 30.09 in 10.0 mi Calm Calm - N/A   Mostly Cloudy
9:56 PM 64.9 °F 59.0 °F 81% 30.10 in 10.0 mi Calm Calm - N/A   Mostly Cloudy
10:56 PM 63.0 °F 59.0 °F 87% 30.12 in 10.0 mi Calm Calm - N/A   Clear
11:56 PM 63.0 °F 57.0 °F 81% 30.12 in 10.0 mi Calm Calm - N/A   Clear